Simultaneous Nadir Overpasses (SNOs) Predictions

Prediction of SNOs between GOES-16 and LANDSAT-8 Satellite Orbit:

Table of predicted SNOs for the next 14.0 days since TLE Epoch: 9/14/2019
Index Date Time (GOES-16) GOES-16 Lat,Lon LANDSAT-8 Lat,Lon Distance(km) Time Diff (sec)
1 09/14/2019 15:03:21 0.01, -75.20 -0.61, -72.44 314.65 80
2 09/15/2019 03:24:45 -0.00, -75.19 -0.52, -77.62 276.93 80
3 09/17/2019 03:09:55 -0.01, -75.19 0.12, -74.67 59.71 80
4 09/19/2019 02:57:45 -0.01, -75.20 0.75, -71.72 396.56 80
5 09/19/2019 15:19:01 0.01, -75.22 0.34, -76.88 188.44 80
6 09/21/2019 15:09:31 0.01, -75.23 -0.28, -73.92 148.51 80
7 09/22/2019 03:30:55 -0.00, -75.22 -0.85, -79.11 442.71 80
8 09/23/2019 14:57:21 0.01, -75.24 -0.90, -70.97 485.55 80
9 09/24/2019 03:18:46 -0.00, -75.23 -0.17, -76.17 105.65 80
10 09/26/2019 03:03:56 -0.01, -75.25 0.44, -73.21 231.96 80
11 09/26/2019 15:25:12 0.00, -75.27 0.67, -78.37 353.01 80




NCC Satellite Simultaneous Nadir Overpasses (SNOs) Prediction Service
